Simultaneous Nadir Overpasses (SNOs) Predictions

Prediction of SNOs between GOES-14 and NOAA-20 Satellite Orbit:

Table of predicted SNOs for the next 14.0 days since TLE Epoch: 6/17/2023
Index Date Time (GOES-14) GOES-14 Lat,Lon NOAA-20 Lat,Lon Distance(km) Time Diff (sec)
1 06/17/2023 08:50:05 -0.05,-108.69 0.54,-111.28 296.12 80
2 06/18/2023 08:34:01 -0.03,-108.68 -0.44,-106.75 219.48 80
3 06/19/2023 20:53:19 0.07,-108.60 -0.70,-112.07 395.68 80
4 06/20/2023 20:37:15 0.05,-108.60 0.28,-107.54 120.62 80
5 06/22/2023 08:56:24 -0.08,-108.68 0.85,-112.82 473.06 80
6 06/23/2023 08:40:20 -0.07,-108.67 -0.14,-108.29 42.86 80
7 06/25/2023 20:40:53 0.08,-108.58 -0.01,-109.08 56.49 80
8 06/26/2023 20:24:49 0.06,-108.58 0.98,-104.55 460.06 80
9 06/28/2023 08:43:58 -0.10,-108.67 0.15,-109.84 133.14 80
10 06/29/2023 08:27:54 -0.08,-108.66 -0.84,-105.30 382.56 80
11 06/30/2023 20:47:11 0.13,-108.56 -0.34,-110.61 234.58 80
